User: anonymous   Login
Location: Newark
(44.0167°N, 1.3500°E)
Time: 00:16:57
(UTC+00:00)
Language:

JY1SAT - Orbit

View from above orbital plane
View from above orbital plane
View from above satellite
View from above satellite

Ground track
Ground track

The orbit data is extracted from the following two-line orbital elements,

1 43803U 18099AX  19349.84468267 -.00000165  00000-0 -97336-5 0  9993
2 43803  97.7257  59.3978 0016619  88.2652 272.0472 14.95381094 56348
Epoch (UTC): 15 December 2019 20:16:20
Eccentricity: 0.0016619
inclination: 97.7257°
perigee height: 569 km
apogee height: 593 km
right ascension of ascending node: 59.3978°
argument of perigee: 88.2652°
revolutions per day: 14.95381094
mean anomaly at epoch: 272.0472°
orbit number at epoch: 5634

The dashed part of the orbit path shows where the satellite is in the earth's shadow,  

DLR